This is the latest recevied weather packets stored in our database for station/object F6BIJ-13. If no packets are shown the sender has not sent any weather packets the latest 10 day(s).
| Time | Temp. | Humidity | Pressure | Rain* | Wind** | Luminosity | Snow |
|---|---|---|---|---|---|---|---|
| 1778227237 | 16.11° C | 74% | 1015.9 hPa | 0 mm | - | - | - |
| 1778226877 | 15.56° C | 69% | 1016 hPa | 0 mm | - | - | - |
| 1778226517 | 16.67° C | 67% | 1016 hPa | 0 mm | - | - | - |
| 1778226157 | 17.22° C | 68% | 1016.1 hPa | 0 mm | - | - | - |
| 1778225797 | 15.56° C | 72% | 1016.1 hPa | 0 mm | - | - | - |
| 1778225437 | 15.56° C | 72% | 1016 hPa | 0 mm | - | - | - |
| 1778225076 | 15° C | 79% | 1016 hPa | 0 mm | - | - | - |
| 1778224717 | 13.89° C | 77% | 1016.1 hPa | 0 mm | - | - | - |
| 1778224357 | 14.44° C | 74% | 1016 hPa | 0 mm | - | - | - |
| 1778223997 | 15.56° C | 75% | 1016 hPa | 0 mm | - | - | - |
| 1778223637 | 15.56° C | 69% | 1016 hPa | 0 mm | - | - | - |
| 1778223277 | 16.67° C | 70% | 1016 hPa | 0 mm | - | - | - |
| 1778222917 | 16.67° C | 76% | 1016 hPa | 0 mm | - | - | - |
| 1778222557 | 16.11° C | 77% | 1015.9 hPa | 0 mm | - | - | - |
| 1778222197 | 15.56° C | 80% | 1015.9 hPa | 0 mm | - | - | - |
| 1778221837 | 14.44° C | 84% | 1015.9 hPa | 0 mm | - | - | - |
| 1778221477 | 13.33° C | 85% | 1015.8 hPa | 0 mm | - | - | - |
| 1778221117 | 12.78° C | 86% | 1015.9 hPa | 0 mm | - | - | - |
| 1778220757 | 12.22° C | 88% | 1015.8 hPa | 0 mm | - | - | - |
| 1778220397 | 11.67° C | 91% | 1015.7 hPa | 0 mm | - | - | - |
| 1778220037 | 11.67° C | 93% | 1015.7 hPa | 0 mm | - | - | - |
| 1778219677 | 11.67° C | 94% | 1015.6 hPa | 0 mm | - | - | - |
| 1778219317 | 10.56° C | 94% | 1015.6 hPa | 0 mm | - | - | - |
| 1778218957 | 11.11° C | 94% | 1015.6 hPa | 0 mm | - | - | - |
| 1778218597 | 10.56° C | 95% | 1015.6 hPa | 0 mm | - | - | - |
* Rain latest 24 hours (hover to see other rain measurements)
** Current wind speed in m/s (hover to see current wind gust speed)